Weather History for Winslow, AZ

Change the Weather History Date:

Saturday, April 6, 2013

  Actual Average Record
Temperature  
Mean Temperature 62 °F 52 °F  
Max Temperature 79 °F 69 °F 82 °F (1960)
Min Temperature 45 °F 34 °F 17 °F (1918)
Degree Days  
Heating Degree Days 3 14  
Month to date heating degree days 48 85  
Since 1 July heating degree days 3899 4138  
Cooling Degree Days 0 0  
Month to date cooling degree days 0 0  
Year to date cooling degree days 0 0  
Growing Degree Days 12 (Base 50)    
Moisture  
Dew Point 24 °F    
Average Humidity 24    
Maximum Humidity 37    
Minimum Humidity 11    
Precipitation  
Precipitation 0.00 in 0.01 in 0.45 in (1951)
Month to date precipitation 0.01 0.07  
Year to date precipitation 1.49 1.59  
Sea Level Pressure  
Sea Level Pressure 29.83 in    
Wind  
Wind Speed 10 mph (WSW)    
Max Wind Speed 24 mph    
Max Gust Speed 29 mph    
Visibility 10 miles    
Events      
T = Trace of Precipitation, MM = Missing Value Source: NWS Daily Summary

Daily Weather History Graph

Daily Weather History Graph

Search for Another Location

Airport:

Trip Planner

Search our weather history database for the weather conditions in past years. The results will help you decide how hot, cold, wet, or windy it might be!

Date:

Astronomy

Apr. 06, 2013 Rise Set
Actual Time 6:02 AM MST 6:48 PM MST
Civil Twilight 5:36 AM MST 7:14 PM MST
Nautical Twilight 5:06 AM MST 7:44 PM MST
Astronomical Twilight 4:35 AM MST 8:15 PM MST
Moon 3:40 AM MST (4/6) 3:27 PM MST (4/6)
Length of Visible Light 13h 37m
Length of Day
12h 46m
Waning Crescent, 14% of the Moon is Illuminated
Apr 6
Waning Crescent
Apr 10
New
Apr 18
First Quarter
Apr 25
Full
May 2
Last Quarter

Hourly Weather History & Observations

Time (MST) Temp. Dew Point Humidity Pressure Visibility Wind Dir Wind Speed Gust Speed Precip Events Conditions
12:56 AM 55.9 °F 23.0 °F 28% 29.83 in 10.0 mi WSW 10.4 mph - N/A   Clear
1:56 AM 55.0 °F 23.0 °F 29% 29.83 in 10.0 mi SW 11.5 mph - N/A   Clear
2:56 AM 55.0 °F 23.0 °F 29% 29.83 in 10.0 mi WSW 9.2 mph - N/A   Clear
3:56 AM 54.0 °F 23.0 °F 30% 29.83 in 10.0 mi SW 9.2 mph - N/A   Clear
4:56 AM 52.0 °F 23.0 °F 32% 29.86 in 10.0 mi Calm Calm - N/A   Clear
5:56 AM 46.9 °F 21.9 °F 37% 29.90 in 10.0 mi Calm Calm - N/A   Clear
6:56 AM 48.9 °F 23.0 °F 36% 29.93 in 10.0 mi ESE 4.6 mph - N/A   Clear
7:56 AM 55.0 °F 25.0 °F 31% 29.93 in 10.0 mi ESE 4.6 mph - N/A   Clear
8:56 AM 66.0 °F 26.1 °F 22% 29.90 in 10.0 mi NW 6.9 mph - N/A   Clear
9:56 AM 68.0 °F 25.0 °F 20% 29.90 in 10.0 mi NNW 9.2 mph - N/A   Clear
10:56 AM 69.1 °F 24.1 °F 18% 29.88 in 10.0 mi North 6.9 mph - N/A   Clear
11:56 AM 72.0 °F 24.1 °F 17% 29.85 in 10.0 mi North 8.1 mph - N/A   Clear
12:56 PM 73.9 °F 23.0 °F 15% 29.82 in 10.0 mi NW 10.4 mph 16.1 mph N/A   Clear
1:56 PM 75.0 °F 21.9 °F 14% 29.78 in 10.0 mi NE 6.9 mph - N/A   Clear
2:56 PM 78.1 °F 19.9 °F 11% 29.74 in 10.0 mi WNW 8.1 mph - N/A   Clear
3:56 PM 78.1 °F 21.0 °F 12% 29.74 in 10.0 mi WSW 15.0 mph 24.2 mph N/A   Clear
4:56 PM 73.9 °F 23.0 °F 15% 29.76 in 10.0 mi SW 17.3 mph 25.3 mph N/A   Clear
5:56 PM 71.1 °F 21.9 °F 16% 29.78 in 10.0 mi WSW 18.4 mph - N/A   Clear
6:56 PM 68.0 °F 27.0 °F 21% 29.79 in 10.0 mi SW 21.9 mph 26.5 mph N/A   Clear
7:56 PM 64.9 °F 25.0 °F 22% 29.81 in 10.0 mi WSW 15.0 mph - N/A   Clear
8:56 PM 63.0 °F 25.0 °F 24% 29.81 in 10.0 mi WSW 16.1 mph - N/A   Clear
9:56 PM 59.0 °F 25.0 °F 27% 29.82 in 10.0 mi WSW 16.1 mph - N/A   Clear
10:56 PM 55.9 °F 25.0 °F 30% 29.83 in 10.0 mi WSW 11.5 mph - N/A   Clear
11:56 PM 53.1 °F 26.1 °F 35% 29.83 in 10.0 mi SW 9.2 mph - N/A   Clear